Other Surface Observations
Issued by NWS Tucson, AZ

Home | Current Version | Previous Version | Text Only | Print | Product List | Glossary On
Versions: 1 2 3 4 5 6 7 8 9 10 11 12 13 14 15 16 17 18 19 20 21 22 23 24 25 26 27 28 29 30 31 32 33 34 35 36 37 38 39 40 41 42 43 44 45 46 47 48 49 50
032
SXUS55 KTWC 220345
OSOTWC

WEATHER ROUNDUP FOR SOUTHEAST ARIZONA
NATIONAL WEATHER SERVICE TUCSON AZ
845 PM MST SAT APR 21 2018

AZZ504>506-514-220445-
LOCATION       SKY/WX    TMP DP  RH WIND       PRES   REMARKS
TUCSON         CLOUDY    76  26  15 NW13      30.00R
DAVIS-MONTHAN  MOCLDY    74  28  18 N6        29.98R
CHILDRENS PARK N/A      N/A N/A  13 NW5               PIMA CO DEQ
ALVERNON/22ND  N/A       78 N/A N/A NW5               PIMA CO DEQ
CHERRY/GLENN   N/A      N/A N/A N/A N/A               PIMA CO DEQ
TANGERINE      N/A       78 N/A N/A W8                PIMA CO DEQ
CONTL RANCH    N/A       80  25  13 W6                PIMA CO DEQ
GRANT/1ST      N/A       79  26  14 SW8               PIMA CO DEQ
CRAYCROFT/22ND N/A       79  24  13 NW9               PIMA CO DEQ
GOLFLINKS/KOLB N/A      N/A N/A N/A N/A               PIMA CO DEQ
AJO/12TH       N/A       80  25  13 NW6               PIMA CO DEQ
FAIRGROUNDS    N/A       77 N/A N/A NW7               PIMA CO DEQ
SAGUARO        N/A       76  27  16 W4G13             *SABINO CYN
SAN CARLOS     N/A       79  22  12 NE4               *SAN CARLOS
GREEN VALLEY   N/A       78  23  13 NW5               PIMA CO DEQ
HORSE CAMP CYN N/A       73  24  16 W7G11             *ARAVAIPA CYN
RINCON MTNS    N/A       49  17  28 E3                *NR MANNING CAMP
$$

AZZ509>511-220445-
LOCATION       SKY/WX    TMP DP  RH WIND       PRES   REMARKS
SAFFORD        MOCLDY    74  23  15 W5        29.98R
STRAY HORSE    N/A       53  23  31 N7G15             *
TRAIL CABIN    N/A       62  23  22 SW3               *N OF GRANVILLE
BLACK HILLS    N/A       74  25  16 N3                *N OF FT THOMAS
DRY LAKE       N/A       54  21  27 N7G13             *NATANES MTNS
NOON CREEK     N/A       62  23  22 SW7G10            *PINALENO MTNS
COLUMBINE      N/A       42  15  34 CALM              *PINALENO MTNS
GUTHRIE        N/A       62  24  23 SW12G19           *SW OF GUTHRIE
$$

AZZ502-503-513-220445-
LOCATION       SKY/WX    TMP DP  RH WIND       PRES   REMARKS
NOGALES        CLOUDY    68  25  19 E3        30.04R
SELLS          N/A       77  21  12 NE3G11            *
SASABE         N/A       72  23  16 NE3               *ALTAR VLY
HOPKINS        N/A       57  17  21 NE3               *SANTA RITA MTNS
CARR CYN       N/A       61  20  20 SW3               *W OF HEREFORD
$$

AZZ507-508-512-220445-
LOCATION       SKY/WX    TMP DP  RH WIND       PRES   REMARKS
SIERRA VISTA   MOCLDY    66  19  17 W8        30.10
DOUGLAS        MOCLDY    66  14  13 SE7       30.06R
EMPIRE MTNS    N/A       64  23  21 NW3               *LAS CIENEGAS NCA
MULESHOE RANCH N/A       68  23  18 NW3               *PRESERVE
HEADQUARTERS   N/A       59  22  24 E3                *CHIRICAHUA MTNS
$$

.............................NOTES.............................
THIS IS AN AUTOMATED COLLECTIVE WITH MINIMAL QUALITY CONTROL.
PIMA CO DEQ SITES HAVE NONSTANDARD WIND SENSOR HEIGHTS.
PIMA CO DEQ SITES DO NOT REPORT WIND GUSTS.
* INDICATES WIND SENSORS LOCATED AT 20 FEET INSTEAD OF 33 FEET.
..............................KEY..............................
SKY/WX - SKY CONDITION/WEATHER
TMP    - TEMPERATURE IN FAHRENHEIT
DP     - DEWPOINT IN FAHRENHEIT
RH     - RELATIVE HUMIDITY IN PERCENT
WIND   - DIRECTION AND SPEED IN MILES PER HOUR (MPH)
VRB    - VARIABLE WIND DIRECTION
PRES   - MEAN SEA LEVEL PRESSURE IN INCHES OF MERCURY
         F - FALLING PRESSURE   R - RISING PRESSURE
         S - STEADY PRESSURE
VSB    - VISIBILITY IN MILES
HX     - HEAT INDEX IN FAHRENHEIT
WCI    - WIND CHILL INDEX IN FAHRENHEIT
N/A    - NOT AVAILABLE
AFB    - AIR FORCE BASE
         DAVIS-MONTHAN IS DAVIS-MONTHAN AIR FORCE BASE
CYN    - CANYON
MTNS   - MOUNTAINS
NCA    - NATIONAL CONSERVATION AREA
NR     - NEAR
VLY    - VALLEY
CONTL  - CONTINENTAL
PIMA CO DEQ - PIMA COUNTY DEPT OF ENVIRONMENTAL QUALITY



USA.gov is the U.S. government's official web portal to all federal, state and local government web resources and services.